SHT2G EGPB-EGLL

Flight info

Callsign SHT2G
Flight time N/A
Altitude 39000
Route BENTY DCT TIRIK DCT NEXUS DCT RIBEL DCT NUGRA
Aircraft A319/M-SDE3FGHIRWY/LB1

Departure

Time 2026-04-25 17:46
Airport Sumburgh Airport (EGPB)

Arrival

Time N/A
Airport London Heathrow Airport (EGLL)
Time Latitude Longitude Altitude Speed Heading
2026-04-25 17:30 59.87682 -1.28875 34 ft 0 kts 324°
2026-04-25 17:40 59.87680 -1.28873 34 ft 3 kts 324°
2026-04-25 17:40 59.87666 -1.28847 34 ft 3 kts 292°
2026-04-25 17:40 59.87663 -1.28813 34 ft 3 kts 248°
2026-04-25 17:41 59.87667 -1.28795 34 ft 0 kts 233°
2026-04-25 17:42 59.87667 -1.28796 34 ft 0 kts 233°
2026-04-25 17:43 59.87645 -1.28855 34 ft 12 kts 233°
2026-04-25 17:43 59.87601 -1.29033 31 ft 17 kts 262°
2026-04-25 17:43 59.87634 -1.29226 33 ft 15 kts 324°
2026-04-25 17:43 59.87745 -1.29399 34 ft 26 kts 323°
2026-04-25 17:44 59.87910 -1.29641 32 ft 32 kts 324°
2026-04-25 17:44 59.88072 -1.29880 33 ft 20 kts 322°
2026-04-25 17:44 59.88107 -1.30118 32 ft 21 kts 263°
2026-04-25 17:44 59.88089 -1.30427 37 ft 23 kts 263°
2026-04-25 17:45 59.88064 -1.30655 37 ft 8 kts 220°
2026-04-25 17:45 59.88060 -1.30681 38 ft 4 kts 278°
2026-04-25 17:45 59.88079 -1.30613 37 ft 0 kts 83°
2026-04-25 17:46 59.88090 -1.30434 37 ft 53 kts 83°
2026-04-25 17:46 59.88172 -1.29008 66 ft 143 kts 81°
2026-04-25 17:46 59.88284 -1.27028 952 ft 146 kts 81°
2026-04-25 17:46 59.88403 -1.24879 1695 ft 167 kts 81°
2026-04-25 17:47 59.88055 -1.22499 2119 ft 203 kts 124°
2026-04-25 17:47 59.86827 -1.20821 2624 ft 233 kts 152°
2026-04-25 17:47 59.85248 -1.19542 3386 ft 256 kts 158°
2026-04-25 17:47 59.83531 -1.18340 4478 ft 266 kts 159°
2026-04-25 17:48 59.79932 -1.15786 6701 ft 283 kts 159°
2026-04-25 17:48 59.78034 -1.14581 7662 ft 292 kts 169°
2026-04-25 17:48 59.76001 -1.14147 8650 ft 297 kts 183°
2026-04-25 17:49 59.73937 -1.14549 9668 ft 301 kts 192°
2026-04-25 17:49 59.71844 -1.15179 10556 ft 312 kts 193°
2026-04-25 17:49 59.69617 -1.15849 11029 ft 333 kts 192°
2026-04-25 17:49 59.67288 -1.16536 11786 ft 343 kts 192°
2026-04-25 17:50 59.64906 -1.17225 12642 ft 349 kts 192°
2026-04-25 17:50 59.62485 -1.17919 13499 ft 354 kts 192°
2026-04-25 17:50 59.60025 -1.18626 14322 ft 360 kts 192°
2026-04-25 17:50 59.57531 -1.19347 15079 ft 364 kts 192°
2026-04-25 17:51 59.55011 -1.20073 15865 ft 368 kts 192°
2026-04-25 17:51 59.52462 -1.20775 16643 ft 372 kts 191°
2026-04-25 17:51 59.49881 -1.21378 17416 ft 376 kts 190°
2026-04-25 17:51 59.47296 -1.21913 18182 ft 380 kts 189°
2026-04-25 17:52 59.44650 -1.22428 18900 ft 384 kts 189°
2026-04-25 17:52 59.43748 -1.22602 19125 ft 386 kts 189°
2026-04-25 17:52 59.39279 -1.23481 20245 ft 391 kts 189°
2026-04-25 17:52 59.36557 -1.24035 20920 ft 395 kts 189°
2026-04-25 17:53 59.33813 -1.24600 21592 ft 398 kts 189°
2026-04-25 17:53 59.31046 -1.25176 22233 ft 402 kts 189°
2026-04-25 17:53 59.28254 -1.25762 22905 ft 405 kts 189°
2026-04-25 17:53 59.25443 -1.26354 23566 ft 408 kts 189°
2026-04-25 17:54 59.23532 -1.26754 23976 ft 410 kts 189°
2026-04-25 17:54 59.20683 -1.27344 24524 ft 414 kts 189°
2026-04-25 17:54 59.17809 -1.27937 25083 ft 416 kts 189°
2026-04-25 17:54 59.14929 -1.28532 25681 ft 416 kts 189°
2026-04-25 17:55 59.12048 -1.29126 26289 ft 417 kts 189°
2026-04-25 17:55 59.09159 -1.29723 26845 ft 419 kts 189°
2026-04-25 17:55 59.06252 -1.30326 27372 ft 421 kts 189°
2026-04-25 17:55 59.03321 -1.30933 27901 ft 424 kts 189°
2026-04-25 17:56 59.00381 -1.31538 28421 ft 426 kts 188°
2026-04-25 17:56 58.97431 -1.32137 28986 ft 427 kts 188°
2026-04-25 17:56 58.94507 -1.32731 29510 ft 430 kts 188°
2026-04-25 17:56 58.91523 -1.33337 30026 ft 432 kts 188°
2026-04-25 17:57 58.88521 -1.33940 30491 ft 435 kts 188°
2026-04-25 17:57 58.85496 -1.34546 30918 ft 438 kts 188°
2026-04-25 17:57 58.82457 -1.35161 31327 ft 440 kts 188°
2026-04-25 17:57 58.80398 -1.35582 31602 ft 442 kts 188°
2026-04-25 17:58 58.76341 -1.36411 32219 ft 442 kts 188°
2026-04-25 17:58 58.73287 -1.37024 32808 ft 440 kts 188°
2026-04-25 17:58 58.70245 -1.37629 33385 ft 439 kts 187°
2026-04-25 17:58 58.67214 -1.38239 33972 ft 437 kts 187°
2026-04-25 17:59 58.64196 -1.38855 34524 ft 435 kts 187°
2026-04-25 17:59 58.61190 -1.39467 35009 ft 434 kts 187°
2026-04-25 17:59 58.58187 -1.40073 35463 ft 434 kts 187°
2026-04-25 17:59 58.55187 -1.40675 35902 ft 433 kts 187°
2026-04-25 18:00 58.52186 -1.41273 36335 ft 433 kts 187°
2026-04-25 18:00 58.49192 -1.41865 36751 ft 433 kts 187°
2026-04-25 18:00 58.46198 -1.42457 37151 ft 433 kts 187°
2026-04-25 18:00 58.43205 -1.43053 37581 ft 432 kts 187°
2026-04-25 18:01 58.40219 -1.43651 38006 ft 431 kts 187°
2026-04-25 18:01 58.37235 -1.44244 38402 ft 431 kts 187°
2026-04-25 18:01 58.34255 -1.44839 38791 ft 431 kts 187°
2026-04-25 18:01 58.31275 -1.45432 39131 ft 430 kts 186°
2026-04-25 18:02 58.28294 -1.46023 39270 ft 431 kts 186°
2026-04-25 18:02 58.22279 -1.47200 39300 ft 436 kts 186°
2026-04-25 18:03 58.16244 -1.48362 39301 ft 436 kts 186°
2026-04-25 18:03 58.10201 -1.49526 39304 ft 437 kts 186°
2026-04-25 18:04 58.04164 -1.50697 39304 ft 436 kts 186°
2026-04-25 18:04 57.98166 -1.51875 39305 ft 436 kts 186°
2026-04-25 18:05 57.92124 -1.53055 39307 ft 436 kts 186°
2026-04-25 18:05 57.86087 -1.54219 39308 ft 436 kts 186°
2026-04-25 18:06 57.80050 -1.55373 39314 ft 435 kts 186°
2026-04-25 18:06 57.74024 -1.56519 39316 ft 435 kts 186°
2026-04-25 18:07 57.68002 -1.57662 39316 ft 435 kts 186°
2026-04-25 18:07 57.61982 -1.58796 39310 ft 434 kts 186°
2026-04-25 18:08 57.55980 -1.59931 39321 ft 433 kts 186°
2026-04-25 18:08 57.50002 -1.61058 39327 ft 431 kts 186°
2026-04-25 18:09 57.44034 -1.62181 39330 ft 431 kts 187°
2026-04-25 18:09 57.38206 -1.63289 39319 ft 430 kts 186°
2026-04-25 18:10 57.32257 -1.64392 39316 ft 429 kts 186°
2026-04-25 18:10 57.26355 -1.65486 39317 ft 429 kts 186°
2026-04-25 18:11 57.20425 -1.66595 39316 ft 428 kts 186°
2026-04-25 18:11 57.14504 -1.67693 39321 ft 428 kts 186°
2026-04-25 18:12 57.08581 -1.68774 39314 ft 427 kts 186°
2026-04-25 18:12 57.02666 -1.69854 39318 ft 427 kts 186°
2026-04-25 18:13 56.96758 -1.70929 39316 ft 426 kts 186°
2026-04-25 18:13 56.90855 -1.72003 39326 ft 426 kts 186°
2026-04-25 18:14 56.82008 -1.73629 39306 ft 426 kts 186°
2026-04-25 18:14 56.76111 -1.74707 39310 ft 426 kts 186°
2026-04-25 18:15 56.70228 -1.75763 39317 ft 425 kts 186°
2026-04-25 18:15 56.64353 -1.76821 39325 ft 424 kts 186°
2026-04-25 18:16 56.58491 -1.77879 39315 ft 423 kts 186°
2026-04-25 18:17 56.49700 -1.79444 39305 ft 423 kts 187°
2026-04-25 18:17 56.43837 -1.80477 39302 ft 424 kts 187°
2026-04-25 18:18 56.37965 -1.81525 39301 ft 424 kts 187°
2026-04-25 18:18 56.32095 -1.82576 39302 ft 424 kts 187°
2026-04-25 18:19 56.26220 -1.83608 39295 ft 424 kts 187°
2026-04-25 18:19 56.20384 -1.84623 39294 ft 424 kts 187°
2026-04-25 18:20 56.14513 -1.85809 39300 ft 424 kts 188°
2026-04-25 18:20 56.08651 -1.87122 39301 ft 425 kts 188°
2026-04-25 18:21 56.02787 -1.88421 39298 ft 425 kts 188°
2026-04-25 18:21 55.96920 -1.89663 39305 ft 425 kts 188°
2026-04-25 18:22 55.91087 -1.90871 39301 ft 425 kts 188°
2026-04-25 18:22 55.85215 -1.92107 39307 ft 425 kts 188°
2026-04-25 18:23 55.79345 -1.93350 39310 ft 425 kts 188°
2026-04-25 18:23 55.73477 -1.94584 39298 ft 425 kts 188°
2026-04-25 18:24 55.67604 -1.95811 39307 ft 425 kts 188°
2026-04-25 18:24 55.61775 -1.97021 39305 ft 425 kts 188°
2026-04-25 18:25 55.55909 -1.98225 39305 ft 425 kts 188°
2026-04-25 18:25 55.50039 -1.99436 39300 ft 424 kts 188°
2026-04-25 18:26 55.44173 -2.00653 39297 ft 424 kts 188°
2026-04-25 18:26 55.38349 -2.01857 39299 ft 424 kts 188°
2026-04-25 18:27 55.32484 -2.03064 39307 ft 424 kts 188°
2026-04-25 18:27 55.26621 -2.04256 39305 ft 424 kts 188°
2026-04-25 18:28 55.20760 -2.05447 39290 ft 424 kts 188°
2026-04-25 18:28 55.14932 -2.06634 39285 ft 424 kts 188°
2026-04-25 18:29 55.06130 -2.08405 39286 ft 425 kts 188°
2026-04-25 18:30 54.94401 -2.10775 39283 ft 425 kts 188°
2026-04-25 18:30 54.88529 -2.11953 39286 ft 425 kts 188°
2026-04-25 18:31 54.82654 -2.13129 39291 ft 425 kts 188°
2026-04-25 18:31 54.76786 -2.14301 39296 ft 425 kts 188°
2026-04-25 18:32 54.70918 -2.15469 39285 ft 424 kts 188°
2026-04-25 18:32 54.65047 -2.16621 39279 ft 424 kts 188°
2026-04-25 18:33 54.59186 -2.17773 39277 ft 424 kts 188°
2026-04-25 18:33 54.53326 -2.18927 39278 ft 424 kts 188°
2026-04-25 18:34 54.47466 -2.20073 39272 ft 424 kts 188°
2026-04-25 18:34 54.41612 -2.21225 39266 ft 424 kts 188°
2026-04-25 18:35 54.35754 -2.22372 39270 ft 424 kts 188°
2026-04-25 18:35 54.29893 -2.23519 39260 ft 424 kts 188°
2026-04-25 18:36 54.24038 -2.24653 39263 ft 424 kts 188°
2026-04-25 18:36 54.18174 -2.25785 39252 ft 424 kts 188°
2026-04-25 18:37 54.12351 -2.26910 39249 ft 424 kts 188°
2026-04-25 18:37 54.06489 -2.28042 39250 ft 424 kts 188°
2026-04-25 18:38 54.00614 -2.28999 39251 ft 425 kts 182°
2026-04-25 18:38 53.94698 -2.29081 39240 ft 425 kts 182°
2026-04-25 18:39 53.88778 -2.29151 39234 ft 425 kts 182°
2026-04-25 18:39 53.82857 -2.29231 39237 ft 426 kts 182°
2026-04-25 18:40 53.76934 -2.29320 39233 ft 426 kts 182°
2026-04-25 18:40 53.71013 -2.29407 39218 ft 426 kts 182°
2026-04-25 18:41 53.65089 -2.29491 39223 ft 426 kts 182°
2026-04-25 18:41 53.59159 -2.29582 39223 ft 426 kts 182°
2026-04-25 18:42 53.55195 -2.29643 39225 ft 426 kts 182°
2026-04-25 18:42 53.47302 -2.29761 39225 ft 426 kts 182°
2026-04-25 18:43 53.41370 -2.29841 39224 ft 426 kts 182°
2026-04-25 18:43 53.35436 -2.29922 39225 ft 426 kts 182°
2026-04-25 18:44 53.29508 -2.30005 39227 ft 426 kts 182°
2026-04-25 18:44 53.23588 -2.30099 39241 ft 424 kts 182°
2026-04-25 18:45 53.17699 -2.30181 39240 ft 423 kts 182°
2026-04-25 18:45 53.11821 -2.30260 39239 ft 422 kts 182°
2026-04-25 18:46 53.05952 -2.30111 39239 ft 423 kts 174°
2026-04-25 18:46 53.00336 -2.27413 39229 ft 426 kts 155°
2026-04-25 18:47 52.95256 -2.22259 39215 ft 428 kts 149°
2026-04-25 18:47 52.90230 -2.16993 39213 ft 428 kts 149°
2026-04-25 18:48 52.85180 -2.11748 39214 ft 429 kts 149°
2026-04-25 18:48 52.80131 -2.06505 39218 ft 429 kts 149°
2026-04-25 18:49 52.75080 -2.01263 39219 ft 429 kts 149°
2026-04-25 18:49 52.70845 -1.96877 39200 ft 429 kts 149°
2026-04-25 18:50 52.65817 -1.91685 39201 ft 430 kts 149°
2026-04-25 18:50 52.60760 -1.86467 39209 ft 430 kts 149°
2026-04-25 18:51 52.56512 -1.82092 39211 ft 430 kts 150°